Date,TemperatureHighF,TemperatureAvgF,TemperatureLowF,DewpointHighF,DewpointAvgF,DewpointLowF,HumidityHigh,HumidityAvg,HumidityLow,PressureMaxIn,PressureMinIn,WindSpeedMaxMPH,WindSpeedAvgMPH,GustSpeedMaxMPH,PrecipitationSumIn
2014-1-1,43,29,18,31,22,16,93,78,43,30.59,30.33,5,0,0,0.00
2014-1-2,40,32,22,38,30,15,100,89,72,30.33,29.82,14,1,0,0.10
2014-1-3,22,14,8,13,5,3,88,69,47,30.68,29.95,10,2,0,0.00
2014-1-4,37,24,8,35,13,5,92,66,33,30.70,30.48,9,2,0,0.00
2014-1-5,42,40,36,41,38,34,99,94,92,30.46,29.85,8,1,0,0.04
2014-1-6,42,22,-2,40,16,-12,94,79,62,30.30,29.76,12,3,0,0.12
2014-1-7,12,2,-5,1,-6,-12,92,69,53,30.76,30.31,10,2,0,0.00
2014-1-8,43,19,1,21,9,-2,90,70,35,30.88,30.74,5,0,0,0.00
2014-1-9,44,30,18,25,17,10,90,63,32,30.77,30.66,8,1,0,0.00
2014-1-10,48,40,34,46,36,18,94,86,45,30.66,30.24,2,0,0,0.58
2014-1-11,51,47,40,50,45,33,94,91,78,30.23,29.70,7,2,0,1.01
2014-1-12,50,37,28,33,29,25,92,74,46,30.32,29.85,7,2,0,0.00
2014-1-13,48,38,27,37,32,25,93,80,58,30.31,30.10,9,1,0,0.04
2014-1-14,49,39,27,41,35,25,94,86,58,30.13,29.93,6,1,0,0.26
2014-1-15,39,28,23,34,26,20,94,91,79,30.16,30.09,5,0,0,0.02
2014-1-16,34,24,11,21,17,9,93,76,51,30.23,30.11,6,0,0,0.12
2014-1-17,43,29,17,30,22,15,93,77,50,30.18,30.02,8,1,0,0.00
2014-1-18,27,21,14,18,13,7,88,71,60,30.19,30.05,7,1,0,0.00
2014-1-19,39,30,22,29,23,17,91,76,61,30.16,30.10,13,1,0,0.00
2014-1-20,56,34,19,29,22,17,91,67,28,30.09,29.99,10,1,0,0.00
2014-1-21,39,28,15,34,24,10,93,85,73,30.04,29.73,6,1,0,0.02
2014-1-22,21,14,8,11,3,-1,83,63,42,30.31,30.01,8,1,0,0.01
2014-1-23,25,16,4,11,5,-6,78,63,50,30.66,30.29,8,1,0,0.00
2014-1-24,22,10,-2,-2,-6,-8,78,52,29,30.79,30.41,8,1,0,0.00
2014-1-25,29,21,13,24,8,-4,88,59,41,30.39,29.84,10,2,0,0.00
2014-1-26,45,31,14,23,9,0,78,42,23,30.12,30.00,9,2,0,0.00
2014-1-27,45,35,17,35,24,2,79,63,45,30.27,29.96,10,1,0,0.00
2014-1-28,16,12,8,9,4,-3,87,73,50,30.48,30.25,5,0,0,0.00
2014-1-29,22,11,3,8,0,-8,87,63,37,30.59,30.40,7,1,0,0.07
2014-1-30,28,11,-9,9,0,-13,86,66,37,30.67,30.48,11,1,0,0.00
2014-1-31,51,28,10,20,13,7,89,60,23,30.48,30.36,5,0,0,0.01
2014-2-1,52,38,21,27,20,16,88,55,25,30.44,30.26,12,1,0,0.00
2014-2-2,61,43,27,48,36,23,90,77,57,30.27,30.14,3,0,0,0.00
2014-2-3,51,42,27,49,39,26,94,89,71,30.38,29.96,9,1,0,0.76
2014-2-4,38,32,27,32,30,26,100,91,79,30.55,30.27,7,2,0,0.05
2014-2-5,55,38,26,49,32,21,100,82,53,30.26,29.95,12,2,0,0.05
2014-2-6,34,27,22,22,20,16,83,73,58,30.50,30.27,7,1,0,0.00
2014-2-7,38,29,22,25,22,19,89,75,53,30.54,30.45,3,0,0,0.00
2014-2-8,43,33,25,31,27,22,88,80,62,30.47,30.30,4,0,0,0.00
2014-2-9,44,36,28,35,31,26,91,82,69,30.34,30.14,8,1,0,0.00
2014-2-10,34,29,22,29,23,14,89,78,59,30.42,30.20,4,0,0,0.01
2014-2-11,35,23,16,17,14,8,88,70,34,30.57,30.41,4,0,0,0.00
2014-2-12,21,18,15,16,13,9,91,83,66,30.60,30.15,6,1,0,0.00
2014-2-13,33,27,18,31,24,16,93,88,75,30.13,29.75,13,2,0,0.02
2014-2-14,50,38,26,29,24,15,82,60,25,29.96,29.82,13,2,0,0.55
2014-2-15,36,28,18,32,21,12,93,76,58,30.23,29.70,9,2,0,0.02
2014-2-16,44,29,13,28,21,11,91,73,52,30.37,30.22,7,1,0,0.01
2014-2-17,35,28,16,25,21,14,92,74,60,30.50,30.36,10,3,0,0.00
2014-2-18,55,40,24,30,24,14,93,58,19,30.42,30.23,8,1,0,0.00
2014-2-19,62,48,36,48,37,30,93,69,47,30.25,30.05,7,1,0,0.20
2014-2-20,55,45,33,49,38,28,90,78,47,30.33,30.09,11,1,0,0.00
2014-2-21,54,45,30,51,31,17,90,62,24,30.17,29.96,8,1,0,0.54
2014-2-22,59,44,30,27,22,16,80,47,19,30.35,30.18,7,1,0,0.00
2014-2-23,63,46,28,34,28,21,85,55,26,30.24,30.05,5,1,0,0.00
2014-2-24,45,37,28,32,20,10,82,53,29,30.31,30.11,10,1,0,0.00
2014-2-25,41,32,25,20,17,11,71,54,38,30.26,30.15,9,0,0,0.00
2014-2-26,35,28,15,21,17,10,83,64,48,30.14,30.00,5,1,0,0.00
2014-2-27,38,26,12,12,6,-1,88,46,25,30.21,29.99,13,2,0,0.00
2014-2-28,35,25,11,14,11,5,77,57,41,30.49,30.21,10,1,0,0.00
2014-3-1,50,35,22,28,20,10,73,54,39,30.52,30.39,8,1,0,0.00
2014-3-2,60,45,29,49,38,26,93,77,55,30.42,30.07,8,1,0,0.09
2014-3-3,48,33,19,47,31,17,94,92,89,30.39,29.94,4,1,0,0.47
2014-3-4,34,22,11,19,14,9,92,74,45,30.52,30.38,8,1,0,0.03
2014-3-5,55,34,20,31,22,17,93,69,23,30.46,30.31,4,0,0,0.01
2014-3-6,36,29,22,26,20,14,92,69,50,30.54,30.35,9,2,0,0.00
2014-3-7,40,31,26,35,29,24,94,91,82,30.35,30.17,3,0,0,0.42
2014-3-8,61,43,29,41,32,26,94,70,27,30.29,30.16,7,1,0,0.14
2014-3-9,57,45,30,38,32,25,85,63,30,30.23,30.15,5,1,0,0.00
2014-3-10,64,47,28,37,30,23,86,57,27,30.19,30.00,9,1,0,0.00
2014-3-11,71,44,30,40,34,28,94,72,25,29.99,29.85,9,1,0,0.00
2014-3-12,64,39,30,51,30,24,79,72,59,29.76,29.36,11,4,0,0.05
2014-3-13,35,28,22,22,11,6,85,52,30,30.42,29.79,12,3,0,0.00
2014-3-14,52,37,17,21,16,9,85,47,24,30.50,30.23,12,2,0,0.00
2014-3-15,63,50,34,36,28,21,70,45,22,30.23,30.12,9,2,0,0.00
2014-3-16,47,35,29,34,29,24,93,81,43,30.21,30.00,8,1,0,0.42
2014-3-17,30,27,25,28,25,24,94,93,92,30.18,29.98,6,1,0,0.00
2014-3-18,40,32,25,38,30,24,94,93,90,30.35,30.16,4,0,0,0.02
2014-3-19,44,38,33,42,36,32,94,94,90,30.36,30.11,8,1,0,0.04
2014-3-20,54,45,32,42,27,16,95,55,23,30.23,30.11,10,2,0,0.00
2014-3-21,62,45,27,32,26,21,85,51,27,30.31,30.19,9,2,0,0.00
2014-3-22,63,52,40,41,34,26,84,52,40,30.19,30.07,7,1,0,0.00
2014-3-23,45,37,31,37,30,20,93,76,53,30.32,30.12,5,1,0,0.37
2014-3-24,47,31,18,21,16,12,78,56,25,30.43,30.25,7,1,0,0.00
2014-3-25,36,30,24,31,25,18,92,83,65,30.25,29.96,6,1,0,0.24
2014-3-26,36,26,19,18,13,9,78,60,37,30.52,30.17,9,2,0,0.00
2014-3-27,51,34,16,24,18,13,90,58,34,30.64,30.43,15,2,0,0.00
2014-3-28,53,47,42,50,43,24,93,85,47,30.43,30.24,7,2,0,0.01
2014-3-29,56,51,37,54,49,35,94,93,92,30.27,29.72,12,2,0,0.89
2014-3-30,45,36,30,34,29,25,92,75,49,30.22,29.83,19,4,0,0.01
2014-3-31,67,47,32,34,26,20,72,46,23,30.36,30.20,8,1,0,0.00
2014-4-1,76,53,36,41,34,30,84,55,21,30.32,30.16,11,1,0,0.00
2014-4-2,77,58,37,50,42,34,92,60,34,30.25,30.14,8,1,0,0.00
2014-4-3,68,54,41,56,47,38,91,78,61,30.20,30.04,11,1,0,0.02
2014-4-4,68,58,45,57,50,43,94,78,57,30.11,29.84,10,2,0,0.01
2014-4-5,58,47,35,50,34,28,85,63,37,30.26,29.95,9,1,0,0.00
2014-4-6,53,42,27,36,30,24,91,65,47,30.38,30.26,9,2,0,0.00
2014-4-7,50,44,41,49,42,33,98,92,59,30.26,29.80,8,1,0,1.23
2014-4-8,56,49,39,51,41,35,94,75,53,29.88,29.75,7,1,0,0.00
2014-4-9,58,44,34,41,35,31,92,74,45,30.29,29.88,7,1,0,0.00
2014-4-10,64,49,28,38,33,26,93,59,33,30.44,30.30,9,2,0,0.00
2014-4-11,70,57,37,44,39,33,87,53,33,30.32,30.16,8,1,0,0.00
2014-4-12,72,58,42,53,45,38,90,64,43,30.37,30.24,9,2,0,0.00
2014-4-13,72,62,46,54,50,43,91,67,51,30.27,30.14,15,2,0,0.00
2014-4-14,64,59,55,57,54,52,92,85,74,30.15,29.89,9,3,0,0.08
2014-4-15,61,46,28,57,43,20,93,88,74,30.13,29.72,9,2,0,0.95
2014-4-16,50,35,23,27,21,16,79,58,28,30.64,30.15,8,2,0,0.00
2014-4-17,54,38,23,31,25,20,89,61,34,30.73,30.61,10,1,0,0.00
2014-4-18,53,41,28,42,35,24,92,80,61,30.65,30.42,5,0,0,0.00
2014-4-19,61,50,42,41,39,33,92,69,36,30.41,30.32,7,1,0,0.00
2014-4-20,66,50,35,40,34,31,92,60,28,30.46,30.37,6,1,0,0.00
2014-4-21,74,53,30,44,36,28,93,59,24,30.37,30.08,9,1,0,0.00
2014-4-22,69,58,46,56,49,41,87,73,52,30.07,29.82,10,1,0,0.00
2014-4-23,63,52,43,51,31,25,88,47,25,30.15,29.86,12,2,0,0.00
2014-4-24,64,50,32,42,34,28,88,58,39,30.28,30.13,11,1,0,0.00
2014-4-25,61,54,43,56,48,37,93,83,70,30.12,29.86,7,1,0,0.14
2014-4-26,74,57,36,46,40,34,94,59,26,30.16,30.01,12,1,0,0.00
2014-4-27,79,61,39,49,43,36,90,56,27,30.17,30.04,9,1,0,0.00
2014-4-28,60,56,53,54,51,47,93,83,69,30.09,30.00,7,1,0,0.12
2014-4-29,54,51,49,52,50,48,95,94,93,30.17,30.00,7,1,0,0.98
2014-4-30,64,58,51,60,56,50,95,92,86,30.17,29.98,8,2,0,0.13
2014-5-1,70,59,48,54,48,37,93,69,38,30.02,29.89,6,1,0,0.02
2014-5-2,67,52,39,40,37,33,84,59,30,30.06,29.96,7,1,0,0.00
2014-5-3,68,54,41,42,40,37,89,62,34,30.08,30.00,9,1,0,0.00
2014-5-4,78,60,42,48,44,39,90,60,34,30.14,29.99,10,2,0,0.00
2014-5-5,74,60,45,58,50,42,91,73,51,30.13,29.96,9,1,0,0.00
2014-5-6,81,64,44,60,51,42,94,68,39,30.11,29.99,8,1,0,0.00
2014-5-7,76,62,49,62,56,47,93,80,57,30.25,30.12,9,1,0,0.00
2014-5-8,83,67,52,59,53,45,93,65,28,30.31,30.20,8,1,0,0.00
2014-5-9,77,64,49,62,56,47,93,77,51,30.26,30.14,0,0,0,0.04
2014-5-10,68,62,56,62,57,54,92,86,74,30.22,30.13,0,0,0,0.63
2014-5-11,80,65,51,61,55,49,94,73,41,30.29,30.18,0,0,0,0.01
2014-5-12,81,66,50,65,58,48,94,76,51,30.31,30.22,0,0,0,0.00
2014-5-13,59,57,54,57,55,52,92,92,90,30.26,30.24,0,0,0,0.00
2014-5-14,78,69,55,66,60,53,94,73,56,30.24,30.14,12,3,0,0.00
2014-5-15,66,60,47,62,58,45,93,91,75,30.15,29.95,11,2,0,2.85
2014-5-16,61,50,41,46,42,37,93,77,48,30.22,30.03,5,1,0,0.01
2014-5-17,57,47,35,44,39,33,93,75,50,30.37,30.20,4,0,0,0.00
2014-5-18,64,50,38,47,40,36,93,74,40,30.41,30.32,4,0,0,0.00
2014-5-19,64,50,35,50,43,33,94,78,55,30.47,30.37,9,1,0,0.00
2014-5-20,70,58,42,59,51,40,94,79,53,30.42,30.23,7,1,0,0.00
2014-5-21,77,65,51,61,56,49,94,76,54,30.24,30.09,10,1,0,0.00
2014-5-22,78,67,59,63,60,56,92,78,57,30.11,30.02,8,1,0,0.04
2014-5-23,75,63,52,60,53,45,94,73,40,30.18,30.07,6,1,0,0.01
2014-5-24,73,58,45,55,48,43,91,70,43,30.30,30.18,4,0,0,0.00
2014-5-25,71,58,42,60,51,41,94,80,59,30.34,30.27,7,0,0,0.00
2014-5-26,82,65,50,65,58,48,94,78,48,30.33,30.18,5,0,0,0.00
2014-5-27,78,67,56,68,60,54,94,80,57,30.23,30.10,4,0,0,0.00
2014-5-28,83,68,56,65,59,54,93,76,40,30.15,30.07,4,0,0,0.00
2014-5-29,77,65,54,67,61,52,93,88,64,30.22,30.12,6,0,0,0.40
2014-5-30,79,68,62,67,63,60,94,84,61,30.23,30.13,7,1,0,0.00
2014-5-31,75,65,54,60,57,50,93,76,51,30.33,30.22,7,1,0,0.01
2014-6-1,68,59,49,59,54,47,93,82,68,30.45,30.33,8,1,0,0.00
2014-6-2,74,61,46,62,54,44,94,80,61,30.42,30.25,6,1,0,0.00
2014-6-3,76,64,50,65,58,49,94,84,65,30.26,30.10,5,0,0,0.00
2014-6-4,83,70,58,67,62,56,93,77,44,30.11,29.88,6,0,0,0.46
2014-6-5,76,66,56,67,62,53,94,86,66,30.02,29.84,4,0,0,0.18
2014-6-6,78,63,48,59,53,47,94,75,40,30.12,30.00,1,0,0,0.00
2014-6-7,75,64,51,64,58,49,94,83,64,30.17,30.08,9,1,0,0.00
2014-6-8,74,66,59,68,63,57,92,88,79,30.11,29.97,6,1,0,0.01
2014-6-9,78,67,56,66,61,55,93,84,62,30.04,29.96,6,0,0,0.77
2014-6-10,81,68,57,72,64,55,93,86,60,30.09,30.02,6,0,0,0.34
2014-6-11,76,67,58,68,62,55,93,86,75,30.08,29.96,10,1,0,0.03
2014-6-12,76,66,59,67,62,57,92,86,69,30.04,29.93,11,1,0,0.13
2014-6-13,78,66,57,65,61,55,93,84,60,30.06,29.94,4,0,0,0.00
2014-6-14,79,64,50,58,53,46,92,72,36,30.24,30.06,4,0,0,0.00
2014-6-15,79,62,45,65,55,43,93,78,57,30.35,30.24,7,1,0,0.00
2014-6-16,84,70,56,70,63,54,93,81,57,30.33,30.23,5,0,0,0.00
2014-6-17,87,70,57,72,64,55,93,82,54,30.30,30.20,5,0,0,0.00
2014-6-18,88,72,58,70,64,55,93,77,47,30.26,30.16,4,0,0,0.00
2014-6-19,86,72,61,70,65,59,93,79,52,30.22,30.13,4,0,0,0.01
2014-6-20,84,70,59,71,64,57,92,80,54,30.17,30.05,3,0,0,0.01
2014-6-21,82,68,60,71,63,57,93,84,64,30.06,29.94,7,0,0,0.13
2014-6-22,83,69,56,68,61,54,93,78,46,30.12,29.98,6,0,0,0.07
2014-6-23,77,68,61,68,64,59,93,85,71,30.24,30.11,7,1,0,0.10
2014-6-24,76,69,65,68,65,61,90,86,76,30.24,30.12,8,1,0,0.10
2014-6-25,78,69,62,70,65,60,93,87,75,30.12,30.02,5,0,0,0.09
2014-6-26,84,70,60,69,63,58,93,81,51,30.14,30.05,3,0,0,0.00
2014-6-27,81,70,63,69,65,61,93,83,62,30.25,30.12,9,0,0,0.16
2014-6-28,75,67,62,67,63,60,93,86,72,30.35,30.24,7,0,0,0.02
2014-6-29,72,66,60,66,62,57,92,87,80,30.36,30.25,6,1,0,0.18
2014-6-30,79,70,59,69,64,57,93,83,65,30.25,30.07,8,1,0,0.00
2014-7-1,83,73,63,75,68,60,93,84,69,30.11,29.99,6,1,0,0.02
2014-7-2,86,74,63,73,68,61,93,81,61,30.07,30.02,11,1,0,0.01
2014-7-3,81,70,60,74,66,58,93,87,70,30.12,30.00,2,0,0,0.12
2014-7-4,75,64,52,60,55,49,91,75,48,30.37,30.12,4,0,0,0.00
2014-7-5,74,60,46,57,51,43,93,75,52,30.45,30.35,6,1,0,0.00
2014-7-6,78,64,47,63,56,45,93,77,58,30.35,30.17,9,1,0,0.00
2014-7-7,82,69,53,68,60,51,93,77,55,30.19,30.04,9,1,0,0.00
2014-7-8,85,70,57,70,62,55,93,79,50,30.12,29.98,5,0,0,0.34
2014-7-9,76,68,61,69,64,58,93,87,72,30.16,30.04,7,0,0,0.09
2014-7-10,78,67,61,69,63,59,93,87,62,30.25,30.12,1,0,0,0.14
2014-7-11,80,68,58,68,62,56,95,83,55,30.34,30.25,5,0,0,0.01
2014-7-12,80,69,57,70,63,55,93,82,64,30.35,30.25,10,1,0,0.00
2014-7-13,83,71,62,71,66,59,93,83,64,30.26,30.12,5,0,0,0.06
2014-7-14,84,71,61,72,66,59,93,84,59,30.13,29.98,4,0,0,0.23
2014-7-15,77,68,60,69,64,57,93,86,71,30.00,29.89,3,0,0,0.00
2014-7-16,74,62,52,57,53,48,92,76,47,30.12,29.95,6,0,0,0.01
2014-7-17,74,60,47,60,52,44,93,77,51,30.27,30.12,5,0,0,0.00
2014-7-18,68,61,52,62,57,50,93,86,71,30.34,30.27,1,0,0,0.03
2014-7-19,65,62,60,59,58,55,92,86,78,30.32,30.24,6,0,0,0.05
2014-7-20,74,65,59,66,61,56,91,85,76,30.27,30.18,9,1,0,0.00
2014-7-21,78,69,64,69,65,61,92,86,70,30.27,30.19,7,0,0,0.00
2014-7-22,80,71,64,70,66,62,92,84,68,30.29,30.20,6,1,0,0.01
2014-7-23,86,69,58,75,64,56,93,85,54,30.23,30.05,3,0,0,0.96
2014-7-24,78,69,62,71,65,59,93,88,71,30.09,29.97,4,0,0,0.33
2014-7-25,76,66,54,68,61,52,93,85,69,30.19,30.10,7,1,0,0.01
2014-7-26,83,72,62,69,64,57,93,76,40,30.16,30.05,5,0,0,0.00
2014-7-27,80,71,63,70,65,61,91,82,70,30.07,29.86,5,0,0,0.00
2014-7-28,73,67,56,63,59,52,87,77,61,30.03,29.86,4,0,0,0.00
2014-7-29,73,62,53,58,54,50,92,77,47,30.18,30.01,2,0,0,0.00
2014-7-30,75,60,48,59,52,45,93,77,47,30.25,30.18,5,0,0,0.00
2014-7-31,73,62,49,64,56,47,93,84,68,30.29,30.25,6,0,0,0.00
2014-8-1,66,62,59,62,58,56,92,89,81,30.29,30.24,6,0,0,0.80
2014-8-2,67,62,59,62,60,57,93,90,85,30.28,30.20,2,0,0,0.10
2014-8-3,78,66,56,66,60,53,93,81,59,30.26,30.16,3,0,0,0.00
2014-8-4,81,64,51,65,57,49,93,79,42,30.26,30.18,3,0,0,0.00
2014-8-5,81,66,55,68,60,53,93,84,57,30.23,30.11,5,0,0,0.11
2014-8-6,80,67,53,69,61,51,93,82,61,30.16,30.06,2,0,0,0.01
2014-8-7,79,67,58,66,61,55,93,82,55,30.18,30.09,6,0,0,0.00
2014-8-8,67,62,56,64,59,53,93,91,87,30.25,30.18,5,0,0,0.60
2014-8-9,65,63,60,63,61,58,93,92,91,30.25,30.18,6,0,0,0.52
2014-8-10,65,63,60,63,61,58,93,93,92,30.26,30.19,5,0,0,0.30
2014-8-11,68,64,62,65,62,60,93,92,91,30.23,30.10,7,1,0,1.18
2014-8-12,78,70,63,72,66,61,93,89,79,30.09,29.89,6,0,0,1.53
2014-8-13,70,62,53,61,57,51,93,85,68,30.16,29.97,7,0,0,0.01
2014-8-14,76,62,51,63,57,49,93,82,58,30.20,30.10,8,0,0,0.02
2014-8-15,76,64,58,67,60,55,93,86,71,30.17,30.09,4,0,0,0.00
2014-8-16,80,64,50,64,57,48,93,79,39,30.20,30.13,4,0,0,0.01
2014-8-17,79,67,58,69,62,56,92,84,64,30.18,30.09,3,0,0,0.01
2014-8-18,72,67,63,68,64,61,93,91,88,30.11,29.92,1,0,0,0.47
2014-8-19,81,69,61,72,65,59,93,87,69,30.05,29.93,2,0,0,0.23
2014-8-20,81,69,59,71,64,57,93,85,67,30.18,30.04,5,0,0,0.06
2014-8-21,83,71,61,72,65,58,92,82,65,30.23,30.15,3,0,0,0.09
2014-8-22,83,71,61,72,66,59,92,86,64,30.20,30.08,7,0,0,0.03
2014-8-23,82,71,65,73,67,63,92,86,71,30.12,30.02,6,0,0,0.33
2014-8-24,67,65,58,65,62,56,92,89,83,30.26,30.09,7,0,0,0.40
2014-8-25,74,62,52,63,56,50,92,82,62,30.30,30.24,6,0,0,0.00
2014-8-26,77,62,48,65,56,45,95,81,49,30.34,30.25,3,0,0,0.01